Regional Weather Roundup
Issued by NWS

Home | Current Version | Previous Version | Graphics & Text | Print | Product List | Glossary On
Versions: 1 2 3 4 5 6 7 8 9 10 11 12 13 14 15 16 17 18 19 20 21 22 23 24 25 26 27 28 29 30 31 32 33 34 35 36 37 38 39 40 41 42 43 44 45 46 47 48 49 50
000
ASUS43 KMKX 302000
RWRWI

WISCONSIN REGIONAL WEATHER ROUNDUP
NATIONAL WEATHER SERVICE MILWAUKEE/SULLIVAN WI
300 PM CDT TUE SEP 30 2014

NOTE: "FAIR" INDICATES FEW OR NO CLOUDS BELOW 12,000 FEET WITH NO
SIGNIFICANT WEATHER AND/OR OBSTRUCTIONS TO VISIBILITY.

WIZ001-002-006>008-014>016-023>028-302100-
NORTHWEST WISCONSIN

CITY           SKY/WX    TMP DP  RH WIND       PRES   REMARKS
SUPERIOR ARPT  CLOUDY    52  44  74 NE14G23   30.04F
ASHLAND        SUNNY     52  43  71 N12       30.06F
HAYWARD        SUNNY     59  41  51 SE6       30.01F
SIREN          MOSUNNY   55  42  60 E8        30.00F
CUMBERLAND     SUNNY     54  39  58 SE7       30.01F
RICE LAKE      SUNNY     54  42  62 SE7       30.02F
CHETEK         SUNNY     55  44  65 CALM      30.02F
LADYSMITH      SUNNY     60  43  52 SE7       30.03F
EAU CLAIRE     NOT AVBL
MENOMONIE      MOSUNNY   55  41  60 E8        30.01F
NEW RICHMOND   PTSUNNY   55  42  61 E6        30.00F
OSCEOLA        PTSUNNY   56  43  63 SE9       30.02F
$$

WIZ003>005-009-010-017-018-302100-
NORTH CENTRAL WISCONSIN

CITY           SKY/WX    TMP DP  RH WIND       PRES   REMARKS
MANITOWISH WTR SUNNY     51  42  71 E6        30.04F
ARBOR VITAE    SUNNY     54  43  66 SE7       30.04F
WOODRUFF       SUNNY     54  43  66 SE7       30.04F
RHINELANDER    SUNNY     54  42  64 VRB5      30.05F
EAGLE RIVER    SUNNY     53  39  60 E3        30.05F HAZE
LAND O LAKES   SUNNY     54  42  64 N5        30.06F
PHILLIPS       MOSUNNY   58  42  56 CALM      30.02F
TOMAHAWK       SUNNY     55  41  60 CALM      30.04F
MEDFORD        SUNNY     55  42  62 E8        30.02F
MERRILL        SUNNY     56  42  61 SE3       30.04F
$$

WIZ029-030-035-036-043>047-302100-
CENTRAL WISCONSIN

CITY           SKY/WX    TMP DP  RH WIND       PRES   REMARKS
WAUSAU         SUNNY     53  41  63 SW6       30.04F
MOSINEE        SUNNY     52  43  71 SE7       30.06F
MARSHFIELD     SUNNY     55  43  63 SE9       30.02F
STEVENS POINT  PTSUNNY   48  40  74 NE3       30.06F
WAUPACA        CLOUDY    52  42  70 NE6       30.08F
WAUTOMA        NOT AVBL
WISC RAPIDS    SUNNY     53  41  63 NE8       30.05F
CAMP DOUGLAS   NOT AVBL
$$

WIZ011>013-019>022-031-037>040-048>050-302100-
NORTHEAST WISCONSIN

CITY           SKY/WX    TMP DP  RH WIND       PRES   REMARKS
ANTIGO         MOSUNNY   51  42  72 CALM      30.05F
SHAWANO        CLOUDY    50  42  73 N3        30.08F
OCONTO         CLOUDY    49  42  78 CALM      30.08F
STURGEON BAY   NOT AVBL
GREEN BAY      CLOUDY    49  43  80 NE6       30.08F
MANITOWOC      NOT AVBL
APPLETON       CLOUDY    46  39  76 CALM      30.08F
CLINTONVILLE   CLOUDY    48  39  71 E3        30.08F
OSHKOSH        CLOUDY    49  43  80 NE9       30.07S
$$

WIZ032>034-041-042-053>061-302100-
SOUTHWEST WISCONSIN

CITY           SKY/WX    TMP DP  RH WIND       PRES   REMARKS
LA CROSSE      PTSUNNY   55  43  63 E9        30.01F
SPARTA         MOSUNNY   51  40  67 E8        30.05S
VIROQUA        CLOUDY    52  43  72 E6        30.03S
BOSCOBEL       PTSUNNY   53  43  68 E3        30.04F
PRAIRIE DU CHI PTSUNNY   56  44  63 E8        30.01F
PLATTEVILLE    CLOUDY    55  44  68 E8        30.03F
$$

WIZ056-057-062-063-064-067-068-302100-
SOUTH CENTRAL WISCONSIN

CITY           SKY/WX    TMP DP  RH WIND       PRES   REMARKS
REEDSBURG      CLOUDY    48  42  79 SE5       30.05F
BARABOO/DELLS  CLOUDY    48  40  75 E6        30.05F
LONE ROCK      NOT AVBL
MINERAL POINT  CLOUDY    52  43  71 E6        30.03F
MADISON        CLOUDY    50  42  74 E9        30.05F
MIDDLETON      CLOUDY    50  42  73 E6        30.05F
WATERTOWN      CLOUDY    50  43  78 NE3       30.06F
MONROE         CLOUDY    50  43  76 NE7       30.03F
JANESVILLE     MOSUNNY   55  43  62 NE7       30.04S
$$

WIZ051-052-058>065-066-070>072-302100-
SOUTHEAST WISCONSIN

CITY           SKY/WX    TMP DP  RH WIND       PRES   REMARKS
MILWAUKEE      PTSUNNY   54  45  71 N18G24    30.05F
WAUKESHA       CLOUDY    52  43  71 N6        30.05F
MILWAUKEE/TIMM MOSUNNY   54  41  62 NE8       30.06S
RACINE         CLOUDY    53  46  77 N14       30.06F
BURLINGTON     CLOUDY    52  42  68 N3        30.04F
KENOSHA        PTSUNNY   54  46  74 NE10      30.04F
FOND DU LAC    CLOUDY    50  43  77 NE9       30.07S
SHEBOYGAN      CLOUDY    50  42  74 N7        30.07F
WEST BEND      CLOUDY    52  41  66 NE8       30.05F
JUNEAU         CLOUDY    48  41  77 NE3       30.07F
$$

LSZ147-162-302100-
LAKE SUPERIOR

STATION/POSITION TIME  TEMP    WIND        PRES    WAVE
                       AIR SEA DIR/SP/G            HT/PER
                 (UTC) (F)     (DEG/KT/KT) (MB)    (FT/S)
W MID LAKE BUOY  1850   46 50   70/ 10/ 12 1020.1F   2/ 5
DEVILS ISLAND    1900   45      70/ 14/ 16 1020.0F
SAXON HARBOR     1900   48      30/  8/ 11 1018.6F
$$

LMZ867-665-643>646-302100-
LAKE MICHIGAN

STATION/POSITION TIME  TEMP    WIND        PRES    WAVE
                       AIR SEA DIR/SP/G            HT/PER
                 (UTC) (F)     (DEG/KT/KT) (MB)    (FT/S)
CHAMBERS ISLAND  1900   49     360/  7/ 10 1018.6F
S GREEN BAY BUOY 1900   48                 1019.8S
N MID LAKE BUOY  1850   50 58  360/  8/ 10 1018.2F   2/ 4
NORTHPORT PIER   1900   49     360/ 10/ 11 1018.3F
KEWAUNEE LAKESHO 1900   49      40/  7/ 11 1017.6F
SHEBOYGAN LAKESH 1900   48 54  360/ 11/ 13 1019.1F
PORT WASHINGTON  1900   53      30/  9/ 14 1018.6F
ATWATER BUOY     1900   52      20/ 16/ 19 1018.7F
MILWAUKEE LAKESH 1900   50      30/ 14/ 16   N/A
S MID LAKE BUOY  1850   54 62   10/ 14/ 17 1016.9F   4/ 7
KENOSHA   LAKESH 1900   51      10/ 17/ 20 1017.3F
$$

TC  - TEMPERATURE IN CELSIUS
VSB - VISIBILITY IN STATUTE MILES
WCI - WIND CHILL INDEX
HX  - HEAT INDEX




USA.gov is the U.S. government's official web portal to all federal, state and local government web resources and services.